Location: Maccacari
(45.1333°N, 11.1333°E)
Time: 21:13:07
(UTC+00:00)

Tiros 1 despin weight - Pass Details

Date: 22 January 2021
Orbit: 593 x 642 km, 48.2° (Epoch: 08 March)

Event Time Altitude Azimuth Distance (km) Brightness Sun altitude
Rises 19:46:23 0° 290° (WNW) 2,843 ? -38.0°
Reaches altitude 10° 19:48:45 10° 284° (WNW) 1,933 ? -38.4°
Enters shadow 19:49:04 12° 283° (WNW) 1,815 ? -38.5°
